Weather History for Versailles, OH

Change the Weather History Date:

Saturday, January 4, 2014

  Actual Average (KDAY) Record (KDAY)
Temperature  
Mean Temperature 22 °F 28 °F  
Max Temperature 33 °F 35 °F 64 °F (1997)
Min Temperature 10 °F 21 °F -18 °F (1904)
Degree Days  
Heating Degree Days 44 37  
Month to date heating degree days 148  
Since 1 July heating degree days 2307  
Cooling Degree Days 0 0  
Month to date cooling degree days 0  
Year to date cooling degree days 0  
Moisture  
Dew Point 15 °F    
Average Humidity 68    
Maximum Humidity 79    
Minimum Humidity 59    
Precipitation  
Precipitation 0.00 in 0.10 in 2.50 in (2004)
Month to date precipitation 0.40  
Year to date precipitation 0.40  
Snow  
Snow 0.00 in 0.20 in 4.20 in (1914)
Month to date snowfall 0.9  
Since 1 July snowfall 6.4  
Snow Depth -    
Sea Level Pressure  
Sea Level Pressure 30.05 in    
Wind  
Wind Speed 12 mph (SSW)    
Max Wind Speed 21 mph    
Max Gust Speed 31 mph    
Visibility 10 miles    
Events      
T = Trace of Precipitation, MM = Missing Value Source: NWS Daily Summary

Daily Weather History Graph

Daily Weather History Graph

Search for Another Location

Airport:

Trip Planner

Search our weather history database for the weather conditions in past years. The results will help you decide how hot, cold, wet, or windy it might be!

Date:

Astronomy

Jan. 04, 2014 Rise Set
Actual Time 8:00 AM EST 5:25 PM EST
Civil Twilight 7:30 AM EST 5:56 PM EST
Nautical Twilight 6:56 AM EST 6:30 PM EST
Astronomical Twilight 6:23 AM EST 7:02 PM EST
Moon 10:05 AM EST (1/4) 9:44 PM EST (1/4)
Length of Visible Light 10h 25m
Length of Day
9h 24m
Waxing Crescent, 15% of the Moon is Illuminated
Jan 4
Waxing Crescent
Jan 7
First Quarter
Jan 15
Full
Jan 24
Last Quarter
Jan 30
New

Hourly Weather History & Observations

Time (EST) Temp. Windchill Dew Point Humidity Pressure Visibility Wind Dir Wind Speed Gust Speed Precip Events Conditions
12:15 AM 12.2 °F -1.0 °F 5.0 °F 73% 30.18 in 10.0 mi South 10.4 mph - N/A   Clear
12:35 AM 12.2 °F -1.8 °F 5.0 °F 73% 30.17 in 10.0 mi South 11.5 mph 16.1 mph N/A   Clear
12:55 AM 12.2 °F -1.0 °F 5.0 °F 73% 30.15 in 10.0 mi South 10.4 mph - N/A   Clear
1:15 AM 12.2 °F -1.8 °F 5.0 °F 73% 30.14 in 10.0 mi South 11.5 mph - N/A   Clear
1:35 AM 12.2 °F -1.8 °F 5.0 °F 73% 30.14 in 10.0 mi South 11.5 mph 16.1 mph N/A   Clear
1:55 AM 12.2 °F -1.8 °F 5.0 °F 73% 30.15 in 10.0 mi South 11.5 mph 18.4 mph N/A   Clear
2:15 AM 12.2 °F 0.7 °F 5.0 °F 73% 30.15 in 10.0 mi South 8.1 mph 16.1 mph N/A   Clear
2:35 AM 10.4 °F -4.1 °F 5.0 °F 79% 30.15 in 10.0 mi South 11.5 mph - N/A   Clear
2:55 AM 10.4 °F -3.3 °F 5.0 °F 79% 30.15 in 10.0 mi South 10.4 mph - N/A   Clear
3:15 AM 10.4 °F -4.1 °F 5.0 °F 79% 30.14 in 10.0 mi South 11.5 mph - N/A   Clear
3:35 AM 10.4 °F -4.1 °F 5.0 °F 79% 30.13 in 10.0 mi South 11.5 mph 17.3 mph N/A   Clear
3:55 AM 10.4 °F -4.1 °F 5.0 °F 79% 30.12 in 10.0 mi South 11.5 mph 18.4 mph N/A   Clear
4:15 AM 10.4 °F -5.4 °F 5.0 °F 79% 30.11 in 10.0 mi South 13.8 mph - N/A   Clear
4:35 AM 12.2 °F -3.1 °F 5.0 °F 73% 30.10 in 10.0 mi South 13.8 mph 18.4 mph N/A   Clear
4:55 AM 12.2 °F -1.0 °F 5.0 °F 73% 30.09 in 10.0 mi South 10.4 mph 19.6 mph N/A   Clear
5:15 AM 12.2 °F -0.2 °F 6.8 °F 79% 30.09 in 10.0 mi South 9.2 mph 16.1 mph N/A   Clear
5:35 AM 14.0 °F 1.2 °F 8.6 °F 79% 30.09 in 10.0 mi SSW 10.4 mph - N/A   Clear
5:55 AM 14.0 °F 0.5 °F 8.6 °F 79% 30.08 in 10.0 mi South 11.5 mph 18.4 mph N/A   Clear
6:15 AM 15.8 °F 2.7 °F 8.6 °F 73% 30.08 in 10.0 mi SSW 11.5 mph 19.6 mph N/A   Clear
6:35 AM 17.6 °F 5.0 °F 8.6 °F 68% 30.07 in 10.0 mi SSW 11.5 mph 19.6 mph N/A   Clear
6:55 AM 17.6 °F 3.7 °F 8.6 °F 68% 30.07 in 10.0 mi SSW 13.8 mph 17.3 mph N/A   Clear
7:15 AM 17.6 °F 3.2 °F 8.6 °F 68% 30.06 in 10.0 mi South 15.0 mph 20.7 mph N/A   Clear
7:35 AM 17.6 °F 3.2 °F 10.4 °F 73% 30.05 in 10.0 mi SSW 15.0 mph 23.0 mph N/A   Clear
7:55 AM 17.6 °F 2.2 °F 10.4 °F 73% 30.05 in 10.0 mi SSW 17.3 mph 26.5 mph N/A   Clear
8:15 AM 19.4 °F 5.0 °F 10.4 °F 68% 30.05 in 10.0 mi SSW 16.1 mph 24.2 mph N/A   Clear
8:35 AM 19.4 °F 5.0 °F 10.4 °F 68% 30.05 in 10.0 mi SSW 16.1 mph 21.9 mph N/A   Clear
8:55 AM 21.2 °F 6.4 °F 12.2 °F 68% 30.05 in 10.0 mi SSW 18.4 mph 29.9 mph N/A   Clear
9:15 AM 21.2 °F 6.4 °F 12.2 °F 68% 30.05 in 10.0 mi SSW 18.4 mph 27.6 mph N/A   Clear
9:35 AM 21.2 °F 7.3 °F 12.2 °F 68% 30.05 in 10.0 mi SSW 16.1 mph 23.0 mph N/A   Clear
9:55 AM 23.0 °F 10.1 °F 12.2 °F 63% 30.04 in 10.0 mi SSW 15.0 mph 26.5 mph N/A   Clear
10:15 AM 23.0 °F 8.7 °F 14.0 °F 68% 30.04 in 10.0 mi SSW 18.4 mph 25.3 mph N/A   Clear
10:35 AM 24.8 °F 10.3 °F 14.0 °F 64% 30.03 in 10.0 mi SSW 20.7 mph 31.1 mph N/A   Clear
10:55 AM 24.8 °F 10.7 °F 14.0 °F 64% 30.04 in 10.0 mi SSW 19.6 mph 26.5 mph N/A   Clear
11:15 AM 26.6 °F 14.7 °F 14.0 °F 59% 30.04 in 10.0 mi SSW 15.0 mph 27.6 mph N/A   Clear
11:35 AM 26.6 °F 14.7 °F 15.8 °F 64% 30.04 in 10.0 mi SSW 15.0 mph - N/A   Clear
11:55 AM 26.6 °F 16.2 °F 15.8 °F 64% 30.04 in 10.0 mi SSW 11.5 mph - N/A   Clear
12:15 PM 28.4 °F 18.0 °F 17.6 °F 64% 30.03 in 10.0 mi SSW 12.7 mph 16.1 mph N/A   Clear
12:35 PM 28.4 °F 18.0 °F 17.6 °F 64% 30.02 in 10.0 mi SSW 12.7 mph - N/A   Clear
12:55 PM 30.2 °F 20.2 °F 17.6 °F 60% 30.01 in 10.0 mi South 12.7 mph 17.3 mph N/A   Clear
1:15 PM 30.2 °F 20.2 °F 17.6 °F 60% 30.00 in 10.0 mi SSW 12.7 mph - N/A   Clear
1:35 PM 30.2 °F 21.3 °F 19.4 °F 64% 29.99 in 10.0 mi SSW 10.4 mph 16.1 mph N/A   Clear
1:55 PM 32.0 °F 22.1 °F 19.4 °F 60% 29.99 in 10.0 mi SSW 13.8 mph 17.3 mph N/A   Clear
2:15 PM 32.0 °F 22.5 °F 19.4 °F 60% 29.98 in 10.0 mi South 12.7 mph 19.6 mph N/A   Clear
2:35 PM 32.0 °F 23.0 °F 19.4 °F 60% 29.98 in 10.0 mi SSW 11.5 mph 18.4 mph N/A   Clear
2:55 PM 32.0 °F 22.5 °F 19.4 °F 60% 29.99 in 10.0 mi SSW 12.7 mph 20.7 mph N/A   Clear
3:15 PM 32.0 °F 23.0 °F 19.4 °F 60% 29.99 in 10.0 mi South 11.5 mph 23.0 mph N/A   Clear
3:35 PM 32.0 °F 23.0 °F 19.4 °F 60% 30.00 in 10.0 mi SSW 11.5 mph 17.3 mph N/A   Clear
3:55 PM 32.0 °F 21.2 °F 19.4 °F 60% 30.00 in 10.0 mi SSW 16.1 mph 23.0 mph N/A   Clear
4:15 PM 32.0 °F 23.0 °F 19.4 °F 60% 30.01 in 10.0 mi SSW 11.5 mph 18.4 mph N/A   Clear
4:35 PM 32.0 °F 23.0 °F 19.4 °F 60% 30.00 in 10.0 mi SSW 11.5 mph 17.3 mph N/A   Scattered Clouds
4:55 PM 32.0 °F 23.6 °F 19.4 °F 60% 30.00 in 10.0 mi SSW 10.4 mph - N/A   Overcast
5:15 PM 32.0 °F 24.2 °F 21.2 °F 64% 30.01 in 10.0 mi South 9.2 mph - N/A   Overcast
5:35 PM 32.0 °F 24.8 °F 21.2 °F 64% 30.00 in 10.0 mi South 8.1 mph - N/A   Overcast
5:55 PM 32.0 °F 24.2 °F 21.2 °F 64% 30.00 in 10.0 mi South 9.2 mph - N/A   Overcast
6:15 PM 32.0 °F 24.8 °F 21.2 °F 64% 30.00 in 10.0 mi South 8.1 mph - N/A   Overcast
6:35 PM 32.0 °F 25.6 °F 21.2 °F 64% 30.01 in 10.0 mi South 6.9 mph - N/A   Overcast
6:55 PM 32.0 °F 24.2 °F 21.2 °F 64% 30.00 in 10.0 mi South 9.2 mph - N/A   Overcast
7:15 PM 32.0 °F 25.6 °F 21.2 °F 64% 30.01 in 10.0 mi South 6.9 mph - N/A   Overcast
7:35 PM 32.0 °F 24.8 °F 21.2 °F 64% 30.02 in 10.0 mi SSW 8.1 mph - N/A   Overcast
7:55 PM 32.0 °F 26.4 °F 23.0 °F 69% 30.02 in 10.0 mi SSW 5.8 mph - N/A   Overcast
8:15 PM 32.0 °F 25.6 °F 21.2 °F 64% 30.02 in 10.0 mi South 6.9 mph - N/A   Overcast
8:35 PM 32.0 °F 24.8 °F 23.0 °F 69% 30.02 in 10.0 mi SSW 8.1 mph - N/A   Overcast
8:55 PM 32.0 °F 25.6 °F 23.0 °F 69% 30.03 in 10.0 mi SSW 6.9 mph - N/A   Overcast
9:15 PM 32.0 °F 26.4 °F 23.0 °F 69% 30.03 in 10.0 mi SSW 5.8 mph - N/A   Overcast
9:35 PM 33.8 °F 27.7 °F 23.0 °F 65% 30.02 in 10.0 mi SSW 6.9 mph - N/A   Overcast
9:55 PM 33.8 °F 27.7 °F 23.0 °F 65% 30.02 in 10.0 mi SSW 6.9 mph - N/A   Overcast
10:15 PM 33.8 °F 28.6 °F 23.0 °F 65% 30.02 in 10.0 mi SSW 5.8 mph - N/A   Overcast
10:35 PM 33.8 °F 27.7 °F 23.0 °F 65% 30.02 in 10.0 mi SSW 6.9 mph - N/A   Overcast
10:55 PM 33.8 °F 27.0 °F 23.0 °F 65% 30.03 in 10.0 mi SW 8.1 mph - N/A   Overcast
11:15 PM 33.8 °F 27.0 °F 23.0 °F 65% 30.03 in 10.0 mi SW 8.1 mph - N/A   Overcast
11:35 PM 33.8 °F 26.4 °F 23.0 °F 65% 30.03 in 10.0 mi SW 9.2 mph - N/A   Overcast
11:55 PM 33.8 °F 28.6 °F 23.0 °F 65% 30.03 in 10.0 mi SW 5.8 mph 16.1 mph N/A   Overcast